Change the Weather History Date:

Tuesday, November 20, 2012

  Actual Average (KESC) Record (KESC)
Temperature  
Mean Temperature 44 °F -  
Max Temperature 50 °F 38 °F 55 °F (2013)
Min Temperature 39 °F 26 °F 5 °F (2014)
Degree Days  
Heating Degree Days 20    
Moisture  
Dew Point 38 °F    
Average Humidity 87    
Maximum Humidity 93    
Minimum Humidity 66    
Precipitation  
Precipitation 0.00 in - - ()
Sea Level Pressure  
Sea Level Pressure 30.07 in    
Wind  
Wind Speed 4 mph (SSW)    
Max Wind Speed 10 mph    
Max Gust Speed -    
Visibility 5 miles    
Events Rain    
Averages and records for this station are not official NWS values.
T = Trace of Precipitation, MM = Missing Value Source: NWS Daily Summary

Daily Weather History Graph

Daily Weather History Graph

Search for Another Location

Airport or City:

Trip Planner

Search our weather history database for the weather conditions in past years. The results will help you decide how hot, cold, wet, or windy it might be!

Date:

Astronomy

Nov. 20, 2012 Rise Set
Actual Time 7:58 AM EST 5:11 PM EST
Civil Twilight 7:25 AM EST 5:44 PM EST
Nautical Twilight 6:48 AM EST 6:21 PM EST
Astronomical Twilight 6:12 AM EST 6:57 PM EST
Moon 1:20 PM EST (11/20) No Moon Set
Length of Visible Light 10h 19m
Length of Day
9h 12m
Waxing Crescent, 51% of the Moon is Illuminated
Nov 20
Waxing Crescent
Nov 28
Full
Dec 6
Last Quarter
Dec 13
New
Dec 20
First Quarter

Hourly Weather History & Observations

Time (EST) Temp. Windchill Dew Point Humidity Pressure Visibility Wind Dir Wind Speed Gust Speed Precip Events Conditions
12:15 AM 41.9 °F 38.2 °F 38.8 °F 89% 30.06 in 4.0 mi SSW 5.8 mph - N/A   Overcast
12:36 AM 41.9 °F 39.0 °F 38.8 °F 89% 30.06 in 4.0 mi South 4.6 mph - N/A   Overcast
12:56 AM 41.9 °F - 38.8 °F 89% 30.06 in 4.0 mi Calm Calm - N/A   Overcast
1:15 AM 41.5 °F 39.6 °F 38.7 °F 89% 30.05 in 4.0 mi SSW 3.5 mph - N/A   Overcast
1:36 AM 41.2 °F 39.2 °F 38.3 °F 89% 30.05 in 4.0 mi SSW 3.5 mph - N/A   Overcast
1:56 AM 41.2 °F 39.2 °F 38.5 °F 90% 30.04 in 3.0 mi SW 3.5 mph - N/A   Light Drizzle
2:15 AM 41.4 °F - 38.7 °F 90% 30.04 in 3.0 mi Calm Calm - N/A   Overcast
2:36 AM 41.4 °F - 38.7 °F 90% 30.04 in 3.0 mi Calm Calm - N/A   Overcast
2:56 AM 41.4 °F 39.4 °F 38.5 °F 89% 30.05 in 3.0 mi SSW 3.5 mph - N/A   Drizzle
3:15 AM 41.4 °F 39.4 °F 38.5 °F 89% 30.05 in 4.0 mi SSW 3.5 mph - N/A Rain Light Rain
3:36 AM 41.0 °F 38.0 °F 38.3 °F 90% 30.04 in 2.5 mi SSW 4.6 mph - N/A   Overcast
3:56 AM 40.8 °F 37.8 °F 38.3 °F 91% 30.04 in 2.5 mi SSW 4.6 mph - N/A   Overcast
4:16 AM 41.0 °F 38.0 °F 38.3 °F 90% 30.04 in 2.5 mi WSW 4.6 mph - N/A   Overcast
4:36 AM 40.6 °F 38.6 °F 37.9 °F 90% 30.03 in 3.0 mi SW 3.5 mph - N/A   Overcast
4:56 AM 41.2 °F - 38.3 °F 89% 30.04 in 4.0 mi Calm Calm - N/A   Overcast
5:16 AM 41.2 °F - 37.6 °F 87% 30.04 in 5.0 mi Calm Calm - N/A   Overcast
5:36 AM 40.3 °F - 37.6 °F 90% 30.04 in 3.0 mi Calm Calm - N/A   Overcast
5:55 AM 40.8 °F - 37.9 °F 89% 30.05 in 2.0 mi Calm Calm - N/A Rain Light Rain
6:50 AM 41.0 °F 39.0 °F 37.4 °F 87% 30.06 in 3.0 mi SSW 3.5 mph - N/A   Overcast
7:50 AM 39.2 °F 37.0 °F 37.4 °F 93% 30.06 in 3.0 mi South 3.5 mph - N/A   Overcast
8:50 AM 41.0 °F - 37.4 °F 87% 30.06 in 1.8 mi Calm Calm - N/A   Mostly Cloudy
9:05 AM 39.2 °F - 37.4 °F 93% 30.06 in 3.0 mi Calm Calm - N/A   Mostly Cloudy
9:50 AM 42.8 °F - 39.2 °F 87% 30.07 in 5.0 mi Calm Calm - N/A   Mostly Cloudy
10:50 AM 46.4 °F 45.2 °F 39.2 °F 76% 30.08 in 7.0 mi North 3.5 mph - N/A   Clear
11:50 AM 50.0 °F - 39.2 °F 66% 30.08 in 10.0 mi NE 3.5 mph - N/A   Clear
12:50 PM 50.0 °F - 39.2 °F 66% 30.08 in 10.0 mi NE 9.2 mph - N/A   Scattered Clouds
1:50 PM 46.4 °F 41.5 °F 39.2 °F 76% 30.08 in 10.0 mi NE 10.4 mph - N/A   Mostly Cloudy
2:25 PM 44.6 °F 39.2 °F 39.2 °F 81% 30.09 in 10.0 mi NNE 10.4 mph - N/A   Overcast
2:50 PM 42.8 °F 37.5 °F 39.2 °F 87% 30.09 in 7.0 mi NE 9.2 mph - N/A   Overcast
3:55 PM 42.8 °F 37.5 °F 37.4 °F 81% 30.10 in 7.0 mi NE 9.2 mph - N/A   Overcast
4:50 PM 41.0 °F 36.4 °F 37.4 °F 87% 30.10 in 7.0 mi NE 6.9 mph - N/A   Overcast
5:55 PM 41.0 °F 36.4 °F 37.4 °F 87% 30.11 in 7.0 mi North 6.9 mph - N/A   Overcast
6:55 PM 41.0 °F 38.0 °F 37.4 °F 87% 30.13 in 7.0 mi North 4.6 mph - N/A   Overcast
7:50 PM 41.0 °F 39.0 °F 37.4 °F 87% 30.12 in 7.0 mi East 3.5 mph - N/A   Overcast
9:50 PM 41.0 °F 38.0 °F 37.4 °F 87% 30.10 in 4.0 mi South 4.6 mph - N/A   Overcast
10:16 PM 40.3 °F 35.5 °F 37.6 °F 90% 30.11 in 4.0 mi SW 6.9 mph - N/A   Overcast
10:36 PM 40.3 °F 38.2 °F 37.8 °F 91% 30.12 in 3.0 mi SW 3.5 mph - N/A   Overcast
10:56 PM 40.3 °F 37.1 °F 37.8 °F 91% 30.12 in 3.0 mi SSW 4.6 mph - N/A   Overcast
11:16 PM 40.1 °F 35.3 °F 37.6 °F 91% 30.12 in 3.0 mi SSW 6.9 mph - N/A   Overcast
11:36 PM 40.1 °F 34.1 °F 37.4 °F 90% 30.12 in 3.0 mi SSW 9.2 mph - N/A   Overcast
11:55 PM 39.9 °F 35.1 °F 37.4 °F 91% 30.11 in 2.5 mi SSW 6.9 mph - N/A   Overcast